Regional Weather Roundup
Issued by NWS Goodland, KS

Home | Current Version | Previous Version | Graphics & Text | Print | Product List | Glossary On
Versions: 1 2 3 4 5 6 7 8 9 10 11 12 13 14 15 16 17 18 19 20 21 22 23 24 25 26 27 28 29 30 31 32 33 34 35 36 37 38 39 40 41 42 43 44 45 46 47 48 49 50
000
ASUS43 KGLD 290959
RWRGLD

GOODLAND FORECAST AREA HOURLY WEATHER ROUNDUP
NATIONAL WEATHER SERVICE GOODLAND KS
400 AM MDT FRI MAY 29 2015

...OFFICIAL OBSERVATIONS...

CITY           SKY/WX    TMP DP  RH WIND       PRES   REMARKS
GOODLAND KS    CLEAR     52  49  89 W7        30.03F
HILL CITY KS   MOCLDY    56  53  90 W8        29.96F
IMPERIAL NEB   MOCLDY    56  51  84 NW6       30.01R
MCCOOK NEB     PTCLDY    55  52  89 NW14      29.97R
AKRON CO       PTCLDY    48  47  96 W9        30.09S
BURLINGTON CO  PTCLDY    55  49  80 NW14      30.05F
LIMON CO       PTCLDY    49  45  86 VRB6      30.13S
$$

...UNOFFICIAL OBSERVATIONS...

CITY           SKY/WX    TMP DP  RH WIND       PRES   REMARKS
COLBY KS       CLEAR     50  50 100 W3        30.01F
LENORA KS        N/A     55  32  41 MISG        N/A
NORTON KS      CLEAR     55  48  76 W7        29.94F
SHARON SPRINGS   N/A     52  50  92 MISG        N/A
KIT CARSON CO    N/A     57  48  72 MISG        N/A
$$



USA.gov is the U.S. government's official web portal to all federal, state and local government web resources and services.